Volver al catálogo

CZ-3B DEB

LostHEO
NORAD 52965·DEBRIS·🇨🇳 China

Lanzado Sep 4, 2010 desde Xichang Satellite Launch Center

Loading…

Próximos Pases (próximas 24 horas)

TLE

ObsoletoSource: Space-Track

Época: Feb 14, 2025, 04:58 UTC

1 52965U 10042AJ  25045.20726453 -.00000283  00000-0 -14326-1 0  9991
2 52965  25.0308 352.2598 7416537 279.4481  11.3486  1.82725175 19369

Sigue CZ-3B DEB en tiempo real con AllMySat

Download on the App Store